This is the latest recevied weather packets stored in our database for station/object KE6YLF. If no packets are shown the sender has not sent any weather packets the latest 10 day(s).
| Time | Temp. | Humidity | Pressure | Rain* | Wind** | Luminosity | Snow |
|---|---|---|---|---|---|---|---|
| 1788220929 | 32.22° C | 43% | 1075.5 hPa | 0 mm | - | - | - |
| 1788220628 | 32.22° C | 43% | 1075.7 hPa | 0 mm | - | - | - |
| 1788220324 | 32.22° C | 43% | 1075.2 hPa | 0 mm | - | - | - |
| 1788220024 | 32.22° C | 43% | 1075.5 hPa | 0 mm | - | - | - |
| 1788219724 | 32.78° C | 42% | 1075.7 hPa | 0 mm | - | - | - |
| 1788219419 | 32.78° C | 43% | 1075.6 hPa | 0 mm | - | - | - |
| 1788219114 | 32.78° C | 42% | 1075.7 hPa | 0 mm | - | - | - |
| 1788218809 | 32.78° C | 42% | 1075.4 hPa | 0 mm | - | - | - |
| 1788218506 | 32.78° C | 42% | 1075.3 hPa | 0 mm | - | - | - |
| 1788218202 | 32.78° C | 42% | 1075.4 hPa | 0 mm | - | - | - |
| 1788217897 | 32.78° C | 43% | 1075.3 hPa | 0 mm | - | - | - |
| 1788217592 | 32.78° C | 43% | 1075.3 hPa | 0 mm | - | - | - |
| 1788217287 | 33.33° C | 42% | 1075.4 hPa | 0 mm | - | - | - |
| 1788216981 | 32.78° C | 43% | 1075.4 hPa | 0 mm | - | - | - |
| 1788216677 | 32.78° C | 43% | 1075.6 hPa | 0 mm | - | - | - |
| 1788216372 | 32.78° C | 43% | 1075.3 hPa | 0 mm | - | - | - |
| 1788216067 | 33.89° C | 42% | 1075.4 hPa | 0 mm | - | - | - |
| 1788215762 | 33.89° C | 41% | 1075.3 hPa | 0 mm | - | - | - |
| 1788215458 | 34.44° C | 41% | 1075.5 hPa | 0 mm | - | - | - |
| 1788215149 | 33.89° C | 41% | 1075.6 hPa | 0 mm | - | - | - |
| 1788214848 | 33.33° C | 44% | 1075.8 hPa | 0 mm | - | - | - |
| 1788214539 | 33.33° C | 43% | 1075.6 hPa | 0 mm | - | - | - |
| 1788214239 | 33.33° C | 43% | 1075.9 hPa | 0 mm | - | - | - |
| 1788213934 | 33.89° C | 42% | 1075.9 hPa | 0 mm | - | - | - |
| 1788213630 | 33.89° C | 43% | 1076 hPa | 0 mm | - | - | - |
* Rain latest hour (hover to see other rain measurements)
** Current wind speed in m/s (hover to see current wind gust speed)